Weather History for South Haven, MI

Change the Weather History Date:

Tuesday, February 5, 2013

  Actual Average (KBIV) Record (KBIV)
Temperature  
Mean Temperature 18 °F 26 °F  
Max Temperature 30 °F 33 °F 52 °F (1962)
Min Temperature 7 °F 20 °F -7 °F (1961)
Degree Days  
Heating Degree Days 46 39  
Month to date heating degree days 195  
Since 1 July heating degree days 3669  
Cooling Degree Days 0 0  
Month to date cooling degree days 0  
Year to date cooling degree days 0  
Moisture  
Dew Point 19 °F    
Average Humidity 86    
Maximum Humidity 95    
Minimum Humidity 72    
Precipitation  
Precipitation 0.00 in 0.05 in 0.63 in (1986)
Month to date precipitation 0.24  
Year to date precipitation 2.33  
Sea Level Pressure  
Sea Level Pressure 29.87 in    
Wind  
Wind Speed 5 mph (WSW)    
Max Wind Speed 14 mph    
Max Gust Speed 23 mph    
Visibility 7 miles    
Events Snow    
T = Trace of Precipitation, MM = Missing Value Source: NWS Daily Summary

Daily Weather History Graph

Daily Weather History Graph

Search for Another Location

Airport:

Trip Planner

Search our weather history database for the weather conditions in past years. The results will help you decide how hot, cold, wet, or windy it might be!

Date:

Astronomy

Feb. 05, 2013 Rise Set
Actual Time 7:53 AM EST 6:04 PM EST
Civil Twilight 7:24 AM EST 6:34 PM EST
Nautical Twilight 6:51 AM EST 7:07 PM EST
Astronomical Twilight 6:18 AM EST 7:40 PM EST
Moon 3:37 AM EST (2/5) 1:19 PM EST (2/5)
Length of Visible Light 11h 09m
Length of Day
10h 10m
Waning Crescent, 27% of the Moon is Illuminated
Feb 5
Waning Crescent
Feb 10
New
Feb 17
First Quarter
Feb 25
Full
Mar 4
Last Quarter

Hourly Weather History & Observations

Time (EST) Temp. Windchill Dew Point Humidity Pressure Visibility Wind Dir Wind Speed Gust Speed Precip Events Conditions
12:15 AM 15.4 °F - 11.8 °F 86% 29.92 in 10.0 mi Calm Calm - N/A   Mostly Cloudy
12:35 AM 15.1 °F - 12.2 °F 88% 29.93 in 10.0 mi Calm Calm - N/A   Clear
12:55 AM 13.5 °F 7.5 °F 10.8 °F 89% 29.93 in 10.0 mi East 3.5 mph - N/A   Mostly Cloudy
1:14 AM 11.5 °F - 8.4 °F 87% 29.92 in 10.0 mi Calm Calm - N/A   Mostly Cloudy
1:35 AM 11.8 °F - 10.2 °F 93% 29.92 in 7.0 mi Calm Calm - N/A   Clear
1:55 AM 11.7 °F - 9.7 °F 92% 29.92 in 7.0 mi Calm Calm - N/A   Mostly Cloudy
2:14 AM 11.3 °F - 9.5 °F 92% 29.91 in 7.0 mi Calm Calm - N/A   Scattered Clouds
2:35 AM 12.0 °F - 10.0 °F 92% 29.91 in 7.0 mi Calm Calm - N/A   Clear
2:55 AM 11.8 °F - 9.5 °F 90% 29.91 in 7.0 mi Calm Calm - N/A   Clear
3:15 AM 12.9 °F - 11.3 °F 93% 29.91 in 7.0 mi Calm Calm - N/A   Clear
3:35 AM 11.8 °F - 9.9 °F 92% 29.90 in 5.0 mi Calm Calm - N/A   Clear
3:54 AM 11.1 °F - 9.5 °F 93% 29.89 in 5.0 mi Calm Calm - N/A   Clear
4:15 AM 9.5 °F - 7.3 °F 91% 29.89 in 5.0 mi Calm Calm - N/A   Clear
4:35 AM 9.3 °F - 7.5 °F 92% 29.89 in 4.0 mi Calm Calm - N/A   Clear
4:54 AM 10.0 °F - 8.2 °F 92% 29.89 in 4.0 mi Calm Calm - N/A   Scattered Clouds
5:15 AM 9.3 °F - 7.7 °F 93% 29.88 in 4.0 mi Calm Calm - N/A   Clear
5:35 AM 9.0 °F - 7.2 °F 92% 29.89 in 3.0 mi Calm Calm - N/A   Clear
5:55 AM 7.2 °F - 4.8 °F 90% 29.89 in 5.0 mi Calm Calm - N/A   Scattered Clouds
6:15 AM 8.6 °F - 6.3 °F 90% 29.89 in 5.0 mi Calm Calm - N/A   Scattered Clouds
6:34 AM 10.2 °F - 7.9 °F 90% 29.88 in 5.0 mi Calm Calm - N/A   Scattered Clouds
6:55 AM 12.9 °F 6.9 °F 11.1 °F 93% 29.87 in 7.0 mi SSE 3.5 mph - N/A   Clear
7:15 AM 14.0 °F 6.5 °F 12.2 °F 93% 29.89 in 7.0 mi South 4.6 mph - N/A   Scattered Clouds
7:34 AM 14.7 °F 7.3 °F 12.9 °F 93% 29.89 in 7.0 mi South 4.6 mph - N/A   Mostly Cloudy
7:55 AM 15.6 °F 7.0 °F 14.0 °F 93% 29.89 in 7.0 mi South 5.8 mph - N/A   Overcast
8:15 AM 15.8 °F 6.1 °F 14.0 °F 93% 29.89 in 7.0 mi South 6.9 mph - N/A   Overcast
8:35 AM 16.7 °F 6.2 °F 15.1 °F 93% 29.88 in 7.0 mi South 8.1 mph - N/A   Overcast
8:55 AM 18.0 °F 7.7 °F 16.3 °F 93% 29.88 in 7.0 mi South 8.1 mph - N/A   Overcast
9:15 AM 19.4 °F 9.5 °F 18.0 °F 94% 29.87 in 3.0 mi South 8.1 mph - N/A   Overcast
9:35 AM 20.5 °F 10.0 °F 19.2 °F 95% 29.85 in 4.0 mi South 9.2 mph - N/A   Overcast
9:54 AM 21.6 °F 11.3 °F 20.1 °F 94% 29.85 in 5.0 mi South 9.2 mph - N/A   Overcast
10:15 AM 22.6 °F 13.4 °F 20.5 °F 91% 29.84 in 7.0 mi South 8.1 mph - N/A   Mostly Cloudy
10:35 AM 23.9 °F 14.2 °F 20.5 °F 87% 29.84 in 7.0 mi SSW 9.2 mph - N/A   Overcast
10:55 AM 24.6 °F 17.7 °F 20.8 °F 86% 29.84 in 7.0 mi SSW 5.8 mph - N/A   Overcast
11:15 AM 25.5 °F 15.5 °F 21.2 °F 84% 29.84 in 10.0 mi SSW 10.4 mph - N/A   Overcast
11:34 AM 25.9 °F 17.4 °F 21.6 °F 84% 29.83 in 7.0 mi South 8.1 mph - N/A   Overcast
11:55 AM 27.5 °F 18.6 °F 22.1 °F 80% 29.81 in 10.0 mi South 9.2 mph - N/A   Overcast
12:15 PM 28.6 °F 19.3 °F 21.9 °F 76% 29.81 in 10.0 mi SSW 10.4 mph - N/A   Overcast
12:35 PM 29.3 °F 18.6 °F 21.4 °F 72% 29.80 in 10.0 mi SSW 13.8 mph 18.4 mph N/A   Overcast
12:55 PM 29.3 °F 20.2 °F 21.9 °F 74% 29.80 in 10.0 mi SSW 10.4 mph 23.0 mph N/A   Overcast
1:15 PM 29.3 °F 20.2 °F 21.7 °F 73% 29.79 in 10.0 mi WSW 10.4 mph 16.1 mph N/A   Overcast
1:34 PM 29.3 °F 19.6 °F 21.9 °F 74% 29.79 in 10.0 mi SSW 11.5 mph 20.7 mph N/A   Overcast
1:54 PM 28.9 °F 19.2 °F 22.1 °F 76% 29.79 in 10.0 mi SW 11.5 mph 17.3 mph N/A   Overcast
2:15 PM 29.1 °F 18.9 °F 23.0 °F 78% 29.79 in 4.0 mi SW 12.7 mph - N/A Snow Light Snow
2:35 PM 28.8 °F 19.0 °F 24.1 °F 83% 29.79 in 2.0 mi SW 11.5 mph - N/A Snow Light Snow
2:55 PM 28.4 °F 21.2 °F 26.2 °F 92% 29.79 in 0.5 mi SW 6.9 mph - N/A Snow Light Snow
3:15 PM 29.7 °F 20.1 °F 27.9 °F 93% 29.79 in 0.8 mi WSW 11.5 mph 18.4 mph N/A Snow Light Snow
3:35 PM 28.9 °F 18.6 °F 26.8 °F 92% 29.79 in 0.5 mi West 12.7 mph - N/A Snow Light Snow
3:54 PM 28.8 °F 20.2 °F 27.0 °F 93% 29.79 in 0.5 mi West 9.2 mph 19.6 mph N/A Snow Snow
4:15 PM 28.9 °F 21.1 °F 26.8 °F 92% 29.81 in 1.0 mi West 8.1 mph - N/A Snow Light Snow
4:34 PM 29.3 °F 19.6 °F 27.3 °F 92% 29.81 in 2.0 mi West 11.5 mph 17.3 mph N/A Snow Light Snow
4:55 PM 29.7 °F 20.1 °F 26.1 °F 86% 29.82 in 7.0 mi West 11.5 mph 17.3 mph N/A   Overcast
5:15 PM 30.0 °F 20.5 °F 25.9 °F 85% 29.82 in 5.0 mi West 11.5 mph 16.1 mph N/A   Overcast
5:35 PM 30.0 °F 20.5 °F 25.3 °F 83% 29.83 in 10.0 mi West 11.5 mph 17.3 mph N/A   Overcast
5:54 PM 30.0 °F 21.7 °F 25.7 °F 84% 29.83 in 7.0 mi West 9.2 mph - N/A   Overcast
6:15 PM 30.2 °F 21.9 °F 25.5 °F 83% 29.84 in 7.0 mi WNW 9.2 mph - N/A   Overcast
6:34 PM 30.2 °F 21.9 °F 25.7 °F 83% 29.85 in 7.0 mi WNW 9.2 mph - N/A   Overcast
6:55 PM 29.8 °F 22.2 °F 26.6 °F 88% 29.86 in 4.0 mi WNW 8.1 mph 16.1 mph N/A   Overcast
7:15 PM 30.0 °F 21.1 °F 27.1 °F 89% 29.87 in 4.0 mi NW 10.4 mph - N/A   Overcast
7:35 PM 30.2 °F 21.9 °F 27.9 °F 91% 29.88 in 3.0 mi NW 9.2 mph 16.1 mph N/A   Overcast
7:55 PM 30.0 °F 21.7 °F 27.5 °F 90% 29.89 in 3.0 mi NW 9.2 mph 17.3 mph N/A   Overcast
8:14 PM 29.7 °F 20.7 °F 27.0 °F 90% 29.90 in 7.0 mi WNW 10.4 mph 16.1 mph N/A   Overcast
8:35 PM 30.0 °F 21.7 °F 26.4 °F 86% 29.92 in 7.0 mi NW 9.2 mph 16.1 mph N/A   Overcast
8:55 PM 30.2 °F 23.4 °F 25.5 °F 83% 29.92 in 10.0 mi NW 6.9 mph 16.1 mph N/A   Overcast
9:15 PM 30.2 °F 21.3 °F 24.6 °F 80% 29.93 in 10.0 mi NW 10.4 mph 16.1 mph N/A   Overcast
9:35 PM 30.2 °F 23.4 °F 23.9 °F 77% 29.94 in 10.0 mi NW 6.9 mph 18.4 mph N/A   Overcast
9:54 PM 30.2 °F 20.8 °F 23.5 °F 76% 29.95 in 10.0 mi NNW 11.5 mph 19.6 mph N/A   Overcast
10:15 PM 30.2 °F 19.8 °F 23.2 °F 75% 29.96 in 10.0 mi NW 13.8 mph 19.6 mph N/A   Overcast
10:35 PM 30.0 °F 21.1 °F 23.4 °F 76% 29.97 in 10.0 mi NNW 10.4 mph - N/A   Overcast
10:55 PM 30.0 °F 20.0 °F 22.8 °F 75% 29.98 in 10.0 mi NNW 12.7 mph 19.6 mph N/A   Overcast
11:15 PM 29.3 °F 20.8 °F 23.0 °F 77% 29.99 in 10.0 mi NNW 9.2 mph 16.1 mph N/A   Overcast
11:34 PM 29.1 °F 19.4 °F 22.1 °F 75% 29.99 in 10.0 mi North 11.5 mph - N/A   Overcast
11:55 PM 28.9 °F 20.4 °F 21.0 °F 72% 30.00 in 10.0 mi NNW 9.2 mph 18.4 mph N/A   Overcast